| time (UTC) | temp F | wind direction | speed MPH | gust MPH | rain 1hr in | rain 24hr in | rain mn in | humidity % | barometer mb |
| 20260507230204 | 75 | 338 | 4.0 | 13.0 | 0.00 | 0.00 | 0.00 | 64 | 1013.8 |
| 20260507224703 | 76 | 0 | 5.0 | 14.0 | 0.00 | 0.00 | 0.00 | 64 | 1013.5 |
| 20260507223900 | 76 | 42 | 3.0 | 9.0 | 0.00 | 0.00 | 0.00 | 64 | 1013.4 |
| 20260507221702 | 76 | 16 | 2.0 | 11.0 | 0.00 | 0.00 | 0.00 | 64 | 1013.5 |
| 20260507220206 | 76 | 8 | 7.0 | 13.0 | 0.00 | 0.00 | 0.00 | 62 | 1013.7 |
| 20260507215354 | 76 | 1 | 2.0 | 14.0 | 0.00 | 0.00 | 0.00 | 63 | 1013.8 |
| 20260507213203 | 76 | 353 | 2.0 | 11.0 | 0.00 | 0.00 | 0.00 | 64 | 1013.7 |
| 20260507211703 | 76 | 0 | 4.0 | 11.0 | 0.00 | 0.00 | 0.00 | 64 | 1013.8 |
| 20260507210203 | 77 | 13 | 3.0 | 14.0 | 0.00 | 0.00 | 0.00 | 62 | 1014.0 |
| 20260507204702 | 78 | 30 | 5.0 | 13.0 | 0.00 | 0.00 | 0.00 | 62 | 1014.0 |
| 20260507203204 | 77 | 302 | 4.0 | 14.0 | 0.00 | 0.00 | 0.00 | 63 | 1014.0 |
| 20260507201703 | 77 | 1 | 8.0 | 16.0 | 0.00 | 0.00 | 0.00 | 62 | 1014.4 |
| 20260507200204 | 76 | 3 | 6.0 | 14.0 | 0.00 | 0.00 | 0.00 | 65 | 1014.8 |
| 20260507195412 | 76 | 4 | 2.0 | 13.0 | 0.00 | 0.00 | 0.00 | 65 | 1014.6 |
| 20260507193203 | 76 | 86 | 4.0 | 13.0 | 0.00 | 0.00 | 0.00 | 67 | 1014.7 |
| 20260507191703 | 74 | 264 | 3.0 | 16.0 | 0.00 | 0.00 | 0.00 | 68 | 1015.2 |
| 20260507190904 | 74 | 358 | 5.0 | 14.0 | 0.00 | 0.00 | 0.00 | 67 | 1015.5 |
| 20260507184702 | 73 | 0 | 8.0 | 18.0 | 0.00 | 0.00 | 0.00 | 68 | 1015.6 |
| 20260507183204 | 73 | 289 | 5.0 | 16.0 | 0.00 | 0.00 | 0.00 | 69 | 1015.7 |
| 20260507181702 | 72 | 358 | 5.0 | 20.0 | 0.00 | 0.00 | 0.00 | 69 | 1015.9 |
| 20260507180203 | 71 | 0 | 3.0 | 14.0 | 0.00 | 0.00 | 0.00 | 72 | 1015.9 |
| 20260507175353 | 70 | 271 | 3.0 | 14.0 | 0.00 | 0.00 | 0.00 | 71 | 1016.5 |
| 20260507173203 | 71 | 329 | 5.0 | 11.0 | 0.00 | 0.00 | 0.00 | 70 | 1016.7 |
| 20260507171702 | 70 | 329 | 6.0 | 18.0 | 0.00 | 0.00 | 0.00 | 71 | 1016.5 |
| 20260507170204 | 70 | 0 | 5.0 | 13.0 | 0.00 | 0.00 | 0.00 | 72 | 1016.6 |
| 20260507165359 | 68 | 0 | 6.0 | 16.0 | 0.00 | 0.00 | 0.00 | 74 | 1016.7 |
| 20260507163204 | 68 | 0 | 6.0 | 16.0 | 0.00 | 0.00 | 0.00 | 73 | 1016.3 |
| 20260507161702 | 67 | 341 | 6.0 | 13.0 | 0.00 | 0.00 | 0.00 | 75 | 1016.2 |
| 20260507160203 | 66 | 11 | 5.0 | 18.0 | 0.00 | 0.00 | 0.00 | 75 | 1015.8 |
| 20260507155417 | 65 | 0 | 6.0 | 18.0 | 0.00 | 0.00 | 0.00 | 77 | 1016.3 |
| 20260507153205 | 65 | 0 | 6.0 | 16.0 | 0.00 | 0.00 | 0.00 | 77 | 1016.7 |
| 20260507151702 | 65 | 0 | 7.0 | 22.0 | 0.00 | 0.00 | 0.00 | 77 | 1016.5 |
| 20260507150855 | 64 | 355 | 8.0 | 20.0 | 0.00 | 0.00 | 0.00 | 78 | 1016.1 |
| 20260507144705 | 63 | 13 | 6.0 | 18.0 | 0.00 | 0.00 | 0.00 | 79 | 1016.0 |
| 20260507143203 | 63 | 0 | 7.0 | 24.0 | 0.00 | 0.00 | 0.00 | 79 | 1016.2 |
| 20260507141704 | 63 | 0 | 6.0 | 16.0 | 0.00 | 0.00 | 0.00 | 80 | 1016.2 |
| 20260507140204 | 63 | 0 | 7.0 | 14.0 | 0.00 | 0.00 | 0.00 | 80 | 1016.5 |
| 20260507134702 | 62 | 355 | 6.0 | 18.0 | 0.00 | 0.00 | 0.00 | 81 | 1016.4 |
| 20260507133204 | 62 | 347 | 6.0 | 14.0 | 0.00 | 0.00 | 0.00 | 82 | 1016.3 |
| 20260507131702 | 62 | 334 | 6.0 | 18.0 | 0.00 | 0.00 | 0.00 | 83 | 1016.5 |
| 20260507130203 | 62 | 353 | 10.0 | 14.0 | 0.00 | 0.00 | 0.00 | 83 | 1016.8 |
| 20260507124702 | 62 | 336 | 5.0 | 11.0 | 0.00 | 0.00 | 0.00 | 83 | 1016.4 |
| 20260507123204 | 63 | 0 | 4.0 | 16.0 | 0.00 | 0.00 | 0.00 | 83 | 1016.1 |
| 20260507123057 | 63 | 7 | 5.0 | 13.0 | 0.00 | 0.00 | 0.00 | 82 | 1015.2 |
| 20260507120203 | 63 | 0 | 7.0 | 16.0 | 0.00 | 0.00 | 0.00 | 82 | 1015.2 |
| 20260507114702 | 63 | 345 | 8.0 | 16.0 | 0.00 | 0.00 | 0.00 | 82 | 1015.1 |
| 20260507113203 | 63 | 0 | 6.0 | 14.0 | 0.00 | 0.00 | 0.00 | 81 | 1014.9 |
| 20260507111701 | 63 | 0 | 5.0 | 14.0 | 0.00 | 0.00 | 0.00 | 81 | 1014.7 |
| 20260507110202 | 64 | 0 | 6.0 | 18.0 | 0.00 | 0.00 | 0.00 | 81 | 1014.2 |
| 20260507104700 | 64 | 14 | 2.0 | 13.0 | 0.00 | 0.00 | 0.00 | 81 | 1014.1 |
| 20260507103201 | 64 | 0 | 7.0 | 14.0 | 0.00 | 0.00 | 0.00 | 81 | 1013.9 |
| 20260507101700 | 64 | 56 | 2.0 | 11.0 | 0.00 | 0.00 | 0.00 | 81 | 1014.0 |
| 20260507100201 | 65 | 341 | 6.0 | 14.0 | 0.00 | 0.00 | 0.00 | 82 | 1013.8 |
| 20260507094658 | 65 | 0 | 2.0 | 11.0 | 0.00 | 0.00 | 0.00 | 82 | 1013.2 |
| 20260507093200 | 65 | 72 | 4.0 | 16.0 | 0.00 | 0.00 | 0.00 | 82 | 1013.3 |
| 20260507091658 | 65 | 353 | 3.0 | 14.0 | 0.00 | 0.00 | 0.00 | 82 | 1013.1 |
| 20260507090159 | 65 | 1 | 5.0 | 14.0 | 0.00 | 0.00 | 0.00 | 82 | 1013.5 |
| 20260507084657 | 65 | 348 | 2.0 | 18.0 | 0.00 | 0.00 | 0.00 | 82 | 1013.6 |
| 20260507083158 | 66 | 0 | 7.0 | 16.0 | 0.00 | 0.00 | 0.00 | 81 | 1013.3 |
| 20260507081657 | 66 | 1 | 7.0 | 16.0 | 0.00 | 0.00 | 0.00 | 81 | 1013.4 |
| 20260507080158 | 66 | 336 | 6.0 | 14.0 | 0.00 | 0.00 | 0.00 | 81 | 1013.3 |
| 20260507074656 | 66 | 16 | 8.0 | 16.0 | 0.00 | 0.00 | 0.00 | 81 | 1013.5 |
| 20260507073158 | 67 | 345 | 3.0 | 14.0 | 0.00 | 0.00 | 0.00 | 80 | 1013.4 |
| 20260507071655 | 67 | 0 | 5.0 | 11.0 | 0.00 | 0.00 | 0.00 | 80 | 1013.7 |
| 20260507070157 | 67 | 353 | 5.0 | 16.0 | 0.00 | 0.00 | 0.00 | 79 | 1013.9 |
| 20260507064654 | 67 | 326 | 4.0 | 13.0 | 0.00 | 0.00 | 0.00 | 79 | 1013.8 |
| 20260507063156 | 67 | 309 | 5.0 | 13.0 | 0.00 | 0.00 | 0.00 | 79 | 1013.5 |
| 20260507061654 | 67 | 13 | 5.0 | 14.0 | 0.00 | 0.00 | 0.00 | 79 | 1013.6 |
| 20260507060155 | 67 | 337 | 6.0 | 22.0 | 0.00 | 0.00 | 0.00 | 78 | 1013.3 |
| 20260507054654 | 68 | 358 | 8.0 | 22.0 | 0.00 | 0.00 | 0.00 | 78 | 1013.3 |
| 20260507053733 | 69 | 0 | 6.0 | 13.0 | 0.00 | 0.00 | 0.00 | 77 | 1013.4 |
| 20260507053305 | 68 | 10 | 6.0 | 13.0 | 0.00 | 0.00 | 0.00 | 77 | 1013.4 |
| 20260507050902 | 69 | 0 | 6.0 | 14.0 | 0.00 | 0.00 | 0.00 | 77 | 1013.5 |
| 20260507044652 | 69 | 13 | 4.0 | 14.0 | 0.00 | 0.00 | 0.00 | 76 | 1013.4 |
| 20260507043153 | 69 | 23 | 7.0 | 14.0 | 0.00 | 0.00 | 0.00 | 76 | 1013.3 |
| 20260507041651 | 69 | 10 | 2.0 | 14.0 | 0.00 | 0.00 | 0.00 | 76 | 1013.2 |
| 20260507040850 | 70 | 45 | 4.0 | 14.0 | 0.00 | 0.00 | 0.00 | 76 | 1013.2 |
| 20260507035351 | 70 | 354 | 3.0 | 16.0 | 0.00 | 0.00 | 0.00 | 76 | 1013.1 |
| 20260507033849 | 71 | 8 | 7.0 | 18.0 | 0.00 | 0.00 | 0.00 | 76 | 1012.9 |
| 20260507032349 | 71 | 321 | 6.0 | 18.0 | 0.00 | 0.00 | 0.00 | 76 | 1012.6 |
| 20260507030149 | 71 | 309 | 5.0 | 13.0 | 0.00 | 0.00 | 0.00 | 76 | 1012.2 |
| 20260507024650 | 71 | 0 | 4.0 | 18.0 | 0.00 | 0.00 | 0.00 | 75 | 1011.9 |
| 20260507023151 | 72 | 13 | 3.0 | 16.0 | 0.00 | 0.00 | 0.00 | 76 | 1011.6 |
| 20260507022344 | 73 | 0 | 4.0 | 14.0 | 0.00 | 0.00 | 0.00 | 76 | 1011.3 |
| 20260507020857 | 74 | 0 | 9.0 | 16.0 | 0.00 | 0.00 | 0.00 | 77 | 1011.0 |
| 20260507014648 | 74 | 354 | 4.0 | 13.0 | 0.00 | 0.00 | 0.00 | 78 | 1010.7 |
| 20260507013150 | 74 | 345 | 5.0 | 18.0 | 0.00 | 0.00 | 0.00 | 77 | 1010.5 |
| 20260507011648 | 75 | 336 | 6.0 | 16.0 | 0.00 | 0.00 | 0.00 | 78 | 1010.2 |
| 20260507010149 | 75 | 345 | 3.0 | 14.0 | 0.00 | 0.00 | 0.00 | 78 | 1010.0 |
| 20260507004647 | 76 | 0 | 6.0 | 16.0 | 0.00 | 0.00 | 0.00 | 78 | 1009.8 |
| 20260507003150 | 76 | 265 | 3.0 | 16.0 | 0.00 | 0.00 | 0.00 | 78 | 1009.4 |
| 20260507002347 | 77 | 200 | 5.0 | 18.0 | 0.00 | 0.00 | 0.00 | 77 | 1009.4 |
| 20260507000149 | 80 | 351 | 7.0 | 16.0 | 0.00 | 0.00 | 0.00 | 79 | 1008.9 |
| 20260506235351 | 82 | 75 | 0.0 | 3.0 | 0.00 | 0.00 | 0.00 | 82 | 1008.8 |
| 20260506233147 | 82 | 75 | 1.0 | 3.0 | 0.00 | 0.00 | 0.00 | 82 | 1008.6 |
| 20260506231645 | 82 | 76 | 1.0 | 3.0 | 0.00 | 0.00 | 0.00 | 81 | 1008.5 |